Location: *
(43.9900°N, 3.4811°E)
Time: 15:04:26
(UTC+00:00)

NOSS 3-1 (C) - Pass Details

Date: 25 August 2019
Orbit: 775 x 1433 km, 63.4° (Epoch: 01 September)

Event Time Altitude Azimuth Distance (km) Brightness Sun altitude
Rises 21:49:03 0° 319° (NW) 4,027 7.9 -29.1°
Reaches altitude 10° 21:51:42 10° 315° (NW) 3,151 7.0 -29.3°
Maximum altitude 21:59:08 52° 242° (WSW) 1,607 4.5 -30.0°
Enters shadow 22:00:39 47° 210° (SSW) 1,726 4.5 -30.2°
